VK3BZA Weather Reports


Display with metric or nautical units.
time (UTC)temp
F
wind
direction
speed
MPH
gust
MPH
rain 1hr
in
rain 24hr
in
rain mn
in
humidity
%
barometer
mb
20221207160126 40 262 0.0 0.0 0.00 0.01 0.00 10 1008.3
20221207154512 40 257 0.0 0.0 0.00 0.01 0.00 15 1008.2
20221207153158 41 271 0.0 0.0 0.00 0.01 0.00 22 1008.4
20221207150147 42 282 0.0 0.0 0.00 0.01 0.00 39 1008.2
20221207141545 42 269 0.0 0.0 0.00 0.01 0.00 52 1008.1
20221207134643 43 274 0.0 0.0 0.00 0.01 0.01 48 1007.9
20221207133058 43 259 0.0 0.0 0.00 0.01 0.01 43 1008.1
20221207130108 44 265 0.0 0.0 0.00 0.01 0.01 48 1008.1
20221207121642 44 260 0.0 0.0 0.00 0.01 0.01 17 1008.0
20221207114653 45 246 0.0 0.0 0.01 0.01 0.01 100 1007.7
20221207113048 46 280 0.0 0.0 0.01 0.01 0.01 100 1007.6
20221207110121 46 254 0.0 0.0 0.01 0.01 0.01 100 1007.3
20221207104542 47 258 0.0 0.0 0.00 0.00 0.00 100 1007.1
20221207101513 49 281 0.0 0.0 0.00 0.00 0.00 23 1006.2
20221207100040 51 292 0.0 0.0 0.00 0.00 0.00 39 1005.8
20221207094657 52 255 0.0 0.0 0.00 0.00 0.00 56 1005.1
20221207093032 53 255 0.0 0.0 0.00 0.00 0.00 60 1004.5
20221207090103 55 243 0.0 0.0 0.00 0.00 0.00 61 1004.1
20221207083116 58 246 0.0 0.0 0.00 0.00 0.00 61 1003.6
20221207074548 57 258 0.0 0.0 0.00 0.00 0.00 57 1002.8
20221207071552 61 253 0.0 0.0 0.00 0.00 0.00 59 1002.5
20221207064619 60 290 0.0 0.0 0.00 0.00 0.00 54 1002.1
20221207061650 61 260 0.0 0.0 0.00 0.00 0.00 56 1001.8
20221207060047 62 255 0.0 0.0 0.00 0.00 0.00 54 1001.7
20221207053122 65 251 0.0 0.0 0.00 0.00 0.00 56 1001.5
20221207051502 64 266 0.0 0.0 0.00 0.00 0.00 53 1001.7
20221207044556 65 257 0.0 0.0 0.00 0.00 0.00 53 1001.8
20221207043006 67 249 0.0 0.0 0.00 0.00 0.00 59 1001.8
20221207041633 68 282 0.0 0.0 0.00 0.00 0.00 54 1001.7
20221207040038 66 285 0.0 0.0 0.00 0.00 0.00 53 1001.9
20221207033140 66 309 0.0 0.0 0.00 0.00 0.00 57 1002.0
20221207031552 66 309 0.0 0.0 0.00 0.00 0.00 55 1002.1
20221207030003 66 316 0.0 0.0 0.00 0.00 0.00 51 1002.3
20221207023146 67 335 0.0 0.0 0.00 0.00 0.00 56 1002.6
20221207021525 65 66 0.0 0.0 0.00 0.00 0.00 55 1002.9
20221207013109 64 309 0.0 0.0 0.00 0.00 0.00 56 1003.3
20221207011545 66 36 0.0 0.0 0.00 0.00 0.00 55 1003.1
20221207004642 65 319 0.0 0.0 0.00 0.00 0.00 56 1003.3
20221207000125 65 105 0.0 0.0 0.00 0.00 0.00 60 1003.5
20221206234505 65 6 0.0 0.0 0.00 0.00 0.00 57 1003.5
20221206233126 64 114 0.0 0.0 0.00 0.00 0.00 60 1003.6
20221206230122 62 114 0.0 0.0 0.00 0.00 0.00 58 1003.7
20221206223153 60 153 0.0 0.0 0.00 0.00 0.00 59 1003.8
20221206221550 60 120 0.0 0.0 0.00 0.00 0.00 57 1003.9
20221206213047 58 200 0.0 0.0 0.00 0.00 0.00 55 1004.0
20221206211503 58 200 0.0 0.0 0.00 0.00 0.00 57 1004.0
20221206204632 58 200 0.0 0.0 0.00 0.00 0.00 53 1004.0
20221206203012 57 207 0.0 0.0 0.00 0.00 0.00 52 1003.8
20221206200118 57 240 0.0 0.0 0.00 0.00 0.00 51 1003.8
20221206193155 55 241 0.0 0.0 0.00 0.00 0.00 50 1003.5
20221206191631 55 241 0.0 0.0 0.00 0.00 0.00 51 1003.4
20221206190029 55 240 0.0 0.0 0.00 0.00 0.00 50 1003.5
20221206180157 55 240 0.0 0.0 0.00 0.00 0.00 55 1003.4
20221206174610 56 241 0.0 0.0 0.00 0.00 0.00 57 1003.5
20221206173034 55 240 0.0 0.0 0.00 0.00 0.00 58 1003.7
20221206164551 55 241 0.0 0.0 0.00 0.00 0.00 55 1003.9